404  
ASUS42 KTBW 271316  
RWRFL  
FLORIDA REGIONAL WEATHER ROUNDUP  
NATIONAL WEATHER SERVICE TAMPA BAY RUSKIN FL  
900 AM EDT WED JUL 27 2016  
 
NOTE: "FAIR" INDICATES FEW OR NO CLOUDS BELOW 12,000 FEET WITH NO  
SIGNIFICANT WEATHER AND/OR S TO VISIBILITY
.  
 
FLZ001>010-012>015-112-114-115-271400-  
PANHANDLE FLORIDA  
 
CITY SKY/WX TMP DP RH WIND PRES REMARKS
 
PENSACOLA SUNNY 84 74 71 S5 30.05R  
PENSACOLA NAS MOSUNNY 86 71 60 SW8 30.04R  
MILTON NAS MOSUNNY 81 76 84 SW5 30.06R  
CRESTVIEW SUNNY 79 74 84 CALM 30.08R  
DUKE FIELD FAIR 81 74 78 S3 30.05R  
VALPARAISO MOSUNNY 84 73 67 CALM 30.06R  
MARY ESTHER SUNNY 87 69 54 CALM 30.04R  
PANAMA CITY FAIR 80 76 87 CALM 30.06R  
TYNDALL AFB SUNNY 84 75 73 CALM 30.07R  
APALACHICOLA SUNNY 84 81 90 SE5 30.07R HX 99  
 
STATION/POSITION SKY/WX TEMP WIND PRES WAVE SWELL
 
AIR SEA DIR/SP/G HT/PER HT/PER  
(F) (DEG/KT/KT) (MB) (FT/S) (FT/S)  
30.1N 87.6W 85 87 200/ 10/ 12 1017.5R 3/ 6 2/ 6  
29.2N 88.2W 85 85 190/ 10/ 12 1016.6R  
28.8N 86.0W 85 86 120/ 8/ 10 1018.2R 4/ 6 3/ 6  
PANAMA CITY BEAC 84 86 210/ 5/ 7 1018.0R  
TOWER C 85 110/ 5/ 5 1019.1R  
28.5N 84.5W 86 86 90/ 8/ 10 1018.5R 2/ 6 2/ 6  
 

 
FLZ011-016>038-118-127-128-134-139-239-271400-  
NORTH FLORIDA  
 
CITY SKY/WX TMP DP RH WIND PRES REMARKS
 
MARIANNA SUNNY 79 77 94 S5 30.07R  
TALLAHASSEE MOSUNNY 81 76 84 CALM 30.09R  
PERRY SUNNY 81 77 88 CALM 30.10S FOG  
LIVE OAK N/A 81 79 94 CALM 30.12R  
CROSS CITY N/A 82 74 76 VRB3 30.09R  
LAKE CITY FAIR 79 77 94 SE3 30.10S  
GAINESVILLE SUNNY 84 74 71 CALM 30.10R  
WILLISTON FAIR 82 79 89 E3 30.11R  
PALATKA FAIR 82 75 78 E3 30.10S  
MAYPORT NAS MOSUNNY 84 73 69 NW5 30.10R  
JACKSONVILLE MOSUNNY 81 76 84 CALM 30.10R  
JAX NAS MOSUNNY 84 73 69 NW6 30.10R  
JAX CECIL SUNNY 81 75 83 CALM 30.10R  
FERNANDINA BEA FAIR 86 75 70 CALM 30.08S HX 95  
ST AUGUSTINE SUNNY 85 73 67 N5 30.11R  
PALM COAST SUNNY 82 73 74 CALM 30.10R  
 
STATION/POSITION SKY/WX TEMP WIND PRES WAVE SWELL
 
AIR SEA DIR/SP/G HT/PER HT/PER  
(F) (DEG/KT/KT) (MB) (FT/S) (FT/S)  
SHELL POINT 79 CALM / 2 1017.2  
KEATON BEACH 82 60/ 4/ 5 1018.8R  
CEDAR KEY 84 70/ 6/ 7 1019.0R  
FERNANDINA 82 89 270/ 2/ 3 1018.7R  
30.7N 81.3W 86 N/A 2/ 5  
MAYPORT 81 87 CALM / 2 1019.1R  
31.4N 80.9W 83 86 280/ 12/ 14 1018.6R 2/ 3  
ST AUGUSTINE 82 84 20/ 3/ 4 1020.3R  
 

 
FLZ040-043>046-052-053-057-058-063-144-271400-  
INTERIOR CENTRAL FLORIDA  
 
CITY SKY/WX TMP DP RH WIND PRES REMARKS
 
OCALA SUNNY 82 73 74 E3 30.11R  
THE VILLAGES N/A 82 79 89 CALM 30.01R  
LEESBURG SUNNY 84 75 74 E5 30.11R  
SANFORD SUNNY 83 74 74 CALM 30.11R  
ORLANDO EXEC SUNNY 84 76 76 CALM 30.11R  
ORLANDO INTL SUNNY 84 75 74 S7 30.11R  
KISSIMMEE SUNNY 84 77 79 S9 30.12R  
WINTER HAVEN SUNNY 84 74 71 MISG 30.12R  
LAKELAND SUNNY 82 77 83 S9 30.12R  
BARTOW SUNNY 81 75 83 SE7 30.12R  
OKEECHOBEE SUNNY 81 77 89 CALM 30.12R  
 

 
FLZ041-047-054-059-064-141-147-271400-  
EAST CENTRAL FLORIDA  
 
CITY SKY/WX TMP DP RH WIND PRES REMARKS
 
ORMOND BEACH SUNNY 82 75 78 CALM 30.10R  
DAYTONA BEACH MOSUNNY 84 76 76 CALM 30.10R  
NEW SMYRNA BEA SUNNY 82 75 78 SW5 30.12R  
JFK SPACE CTR MOSUNNY 84 75 74 S6 30.10R  
TITUSVILLE SUNNY 82 81 94 S6 30.12R HX 95  
CAPE CANAVERAL SUNNY 85 74 69 S6 30.10R  
PATRICK AFB SUNNY 85 75 71 SE9 30.11R  
MELBOURNE SUNNY 85 76 74 S7 30.11R  
VERO BEACH SUNNY 85 76 74 VRB6 30.12R  
FT PIERCE SUNNY 85 77 77 SE7 30.11R HX 95  
STUART SUNNY 88 77 70 E8 30.12 HX 100  
 
STATION/POSITION SKY/WX TEMP WIND PRES WAVE SWELL
 
AIR SEA DIR/SP/G HT/PER HT/PER  
(F) (DEG/KT/KT) (MB) (FT/S) (FT/S)  
28.5N 80.2W 82 83 230/ 4/ 4 1019.6R  
28.9N 78.5W 85 86 200/ 6/ 8 1019.2R  
TRIDENT PIER 82 87 180/ 3/ 4 1019.1R  
28.4N 80.5W 83 N/A 1/ 8  
27.5N 80.2W 82 N/A 1/ 8  
 

 
FLZ050-056-061-142-242-148-248-149-249-151-251-155-255-  
160-260-271400-  
WEST CENTRAL FLORIDA  
 
CITY SKY/WX TMP DP RH WIND PRES REMARKS
 
CRYSTAL RIVER FAIR 82 75 78 E3 30.10R  
INVERNESS FAIR 82 77 83 CALM 30.11R  
BROOKSVILLE SUNNY 83 74 74 VRB3 30.11R  
ZEPHYRHILLS FAIR 65 64 94 CALM 30.12R  
CLEARWATER AIR FAIR 82 77 83 SE7 30.09R  
ST PETE CLEARW SUNNY 84 75 74 E7 30.09R  
TAMPA INTL MOSUNNY 84 76 76 VRB3 30.10R  
TAMPA EXEC SUNNY 82 77 83 CALM 30.11R  
PLANT CITY SUNNY 82 79 89 SE5 30.13R  
MACDILL AFB SUNNY 84 81 90 S9 30.10R HX 97  
PETER O KNIGHT SUNNY 86 79 79 SE9 30.11R HX 99  
ST PETERSBURG SUNNY 83 75 77 SE9 30.09R  
SARASOTA SUNNY 85 74 69 SE10 30.08R  
VENICE NOT AVBL  
 
STATION/POSITION SKY/WX TEMP WIND PRES WAVE SWELL
 
AIR SEA DIR/SP/G HT/PER HT/PER  
(F) (DEG/KT/KT) (MB) (FT/S) (FT/S)  
27.3N 84.2W 85 N/A 2/ 6  
CLEARWATER BEACH 82 88 50/ 5/ 7 1018.7R  
MIDDLE TAMPA BAY 150/ 4/ 5 1018.9R  
VENICE 83 88 110/ 8/ 10 1018.7R  
 

 
FLZ066-069-070-075>078-162-262-165-265-271400-  
SOUTHWEST FLORIDA AND KEYS  
 
CITY SKY/WX TMP DP RH WIND PRES REMARKS
 
PUNTA GORDA SUNNY 83 76 79 E6 30.11R  
FT MYERS SUNNY 83 74 74 E7 30.09R  
SOUTHWEST INTL MOSUNNY 83 74 74 E6 30.09R  
NAPLES SUNNY 82 75 79 E9 30.08R  
MARCO ISLAND SUNNY 81 73 78 E5 30.09R  
MARATHON LGT RAIN 78 76 93 NE9 30.08R  
KEY WEST NAS CLOUDY 80 76 87 E10 30.06S  
KEY WEST INTL CLOUDY 80 78 94 E9 30.06S  
 
STATION/POSITION SKY/WX TEMP WIND PRES WAVE SWELL
 
AIR SEA DIR/SP/G HT/PER HT/PER  
(F) (DEG/KT/KT) (MB) (FT/S) (FT/S)  
NAPLES 87 1018.4R  
26.0N 85.6W 85 86 80/ 12/ 14 1018.3R 2/ 6 2/ 6  
DRY TORTUGAS 82 100/ 15/ 18 1018.1R  
SAND KEY 80 110/ 18/ 20 1018.0F  
LONG KEY 76 86 120/ 11/ 13 1018.8R  
 

 
FLZ067-068-071>074-168-172>174-271400-  
SOUTHEAST FLORIDA  
 
CITY SKY/WX TMP DP RH WIND PRES REMARKS
 
W PALM BEACH CLOUDY 86 74 67 SE9 30.10R  
BOCA RATON PTSUNNY 79 77 94 SE5 30.10R  
FT LAUDER-EXEC PTSUNNY 80 73 79 E7 30.10R  
FT LAUDERDALE CLOUDY 82 76 81 NE6 30.09R  
POMPANO BEACH CLOUDY 81 71 71 E6 30.10R  
PEMBROKE PINES PTSUNNY 81 75 82 E5 30.11R  
OPA LOCKA CLOUDY 82 76 81 E9 30.10R  
MIAMI PTSUNNY 83 76 79 E8 30.10R  
WEST KENDALL MOSUNNY 84 77 79 E10 30.09R  
HOMESTEAD MOSUNNY 87 75 68 E10 30.09R HX 96  
 
STATION/POSITION SKY/WX TEMP WIND PRES WAVE SWELL
 
AIR SEA DIR/SP/G HT/PER HT/PER  
(F) (DEG/KT/KT) (MB) (FT/S) (FT/S)  
PORT EVERGLADES 81 70/ 7/ 11 1018.7R  
VIRGINIA KEY 84 88 80/ 9/ 11 1019.0R  
LAKE WORTH 160/ 12/ 13 N/A  
FOWEY ROCKS 84 84 80/ 11/ 12 1019.5R  
SETTLEMENT POINT 85 120/ 9/ 10 1020.2R  
 

 
 
 
 
CLICK HERE TO GO TO PREVIOUS BULLETINS.

The Nexlab FL Page Main Text Page